STARLINK-11404, 62019

Orbit data source: Space-Track

STARLINK-11404, 62019 is a payload satellite owned by SpaceX/Seattle (US) in LEO that was launched on Mon, 18 Nov 2024 UTC via an FALCON 9 launch vehicle from the Air Force Western Test Range (AFWTR). Payloads include a variety of satellites, spacecraft, and rockets equipped with specific instruments for various scientific and technological missions. These include communications satellites like Starlink; space stations such as the ISS; scientific satellites like the Hubble; Earth observation satellites from companies like Planet Labs, Umbra, and HawkEye 360; GPS; miniature CubeSats for education and research; and military/defense satellites.

Loading next visibility...
STARLINK-11404 details
Identifier
62019, 2024-213M
Orbit
LEO
Last TLE update23 hours ago
Origin
Flag of USSpaceX/Seattle (US)
ManufacturerSpaceX/Seattle
MissionOperational spacecraft
Bus & MotorSTARLINK V2M, Unknown motor
Mass730 kg wet, ~700 kg dry
Launch date (UTC)
2024-11-18 (1 month ago)
Launch vehicle
FALCON 9
Launch site
Air Force Western Test Range (AFWTR)
Object type
Payload
Rocket body
Debris
Shape & HBRUnknown
Radar Cross SectionLarge (>1 m²)

Expand to show TLE details & history

TLE from 23 hours ago
0 STARLINK-11404
1 62019U 24213M   24360.45227821  .00000865  00000-0  93056-5 0  9993
2 62019  53.1556  49.0713 0001882  67.3889 292.7331 15.76687651  5890
Epoch: 2024-12-25T10:51Z
Definitive object data (Epoch: 2024-12-25T10:51:16.837Z)
Latitude
Longitude151.80532°
Altitude340.262 km
Speed7.706 km/s
True Right ascension03h 16m 17s
True Declination0° 00' 00"
Sunlit
Object was in full shadow at TLE epoch
Visualization TLE readout
Latitude50.32377°
Longitude-96.95115°
Altitude344.672 km
Speed7.709 km/s
Apparent Right ascension17h 33m 20s
Apparent Declination34° 32' 23"
Sunlit
Object is in full shadow
Visualization observer readout
Local Sidereal Time09:28:30
Azimuth44.828° NE
Elevation2.087°
Doppler factor1
Orbital elements
Apogee altitude341.36 km
Perigee altitude338.831 km
Semi-major axis6,718.232 km
Eccentricity0.0001882
Inclination53.1556°
RAAN49.0713°
Arg. of periapsis67.3889°
True anomaly292.71321°
Mean anomaly292.7331°
Eccentric anomaly292.72315°
Mean motion3.94149 °/min
BSTAR0.0000093056
Orbital period91.34 mins
Loading maneuver chart data...
Loading historical data...
Loading historical data...
Loading historical data...
Loading historical data...
Loading historical data...
Loading historical data...
Loading historical data...

STARLINK-11404 Visibility forecast

Observer location: undefined°, undefined

Span
Click to sort rows by Start time (UTC) header in descending order
Start Az.
Max El. time (UTC)
Max El. Az.
Max El.
End time (UTC)
End Az.
4 mins2024-12-26 13:14:22.154Z290.412° WNW2024-12-26 13:15:22.154Z256.505° W36.176°2024-12-26 13:18:22.154Z146.147° SSE
4 mins2024-12-27 05:38:22.154Z215.915° SW2024-12-27 05:40:22.154Z101.897° ESE40.796°2024-12-27 05:42:22.154Z56.989° ENE
|